Regional Weather Roundup
Issued by NWS Sioux Falls, SD

Home | Current Version | Previous Version | Text Only | Print | Product List | Glossary Off
Versions: 1 2 3 4 5 6 7 8 9 10 11 12 13 14 15 16 17 18 19 20 21 22 23 24 25 26 27 28 29 30 31 32 33 34 35 36 37 38 39 40 41 42 43 44 45 46 47 48 49 50

000
ASUS43 KFSD 230410
RWRFSD

WEATHER ROUNDUP FOR SE SOUTH DAKOTA/SW MINNESOTA/NW IOWA
NATIONAL WEATHER SERVICE SIOUX FALLS SD
1100 PM CDT TUE JUL 22 2014

NOTE: "FAIR" INDICATES FEW OR NO CLOUDS BELOW 12,000 FEET WITH NO
SIGNIFICANT WEATHER AND OR OBSTRUCTIONS TO VISIBILITY.


SDZ038>040-050-052>070-230500-
SOUTHEAST SOUTH DAKOTA

CITY           SKY/WX    TMP DP  RH WIND       PRES   REMARKS
CHAMBERLAIN    MOCLDY    72  59  63 NE6       30.26S
HURON          PTCLDY    68  58  70 N3        30.25R
MADISON        FAIR      61  61 100 NE5       30.25R
MITCHELL       MOCLDY    68  61  78 N3        30.23R
SIOUX FALLS    PTCLDY    66  59  78 N6        30.23R
WINNER         FAIR      70  58  65 NE7       30.27R
YANKTON        CLEAR     70  61  73 N8        30.20S
$$

MNZ071-072-080-081-089-090-097-098-230500-
SOUTHWEST MINNESOTA

CITY           SKY/WX    TMP DP  RH WIND       PRES   REMARKS
FAIRMONT       CLEAR     68  54  60 N8        30.18R
JACKSON        CLEAR     64  55  72 CALM      30.20S
LUVERNE        CLEAR     68  55  64 NE5       30.22S
MARSHALL       CLEAR     63  55  77 NW7       30.21S
MONTEVIDEO     CLEAR     64  55  72 N7        30.22S
PIPESTONE      CLEAR     66  55  68 NE3       30.24R
REDWOOD FALLS  CLEAR     69  57  65 NW8       30.19R
TRACY          CLEAR     64  58  79 NW7       30.22S
WINDOM         CLEAR     64  57  77 NW10      30.20F
WORTHINGTON    CLEAR     61  55  82 NW8       30.22S
$$

IAZ001>003-012>014-020>022-031-032-NEZ013-014-SDZ071-230500-
NORTHWEST IOWA

CITY           SKY/WX    TMP DP  RH WIND       PRES   REMARKS
CHEROKEE       CLEAR     68  62  79 N6        30.18S
DENISON        CLEAR     70  64  83 N5        30.15R
ESTHERVILLE    CLEAR     66  56  70 N10       30.18R
LE MARS        CLEAR     66  63  88 N6        30.19S
ORANGE CITY    CLEAR     72  57  60 N9G16     30.20S
SHELDON        CLEAR     63  59  88 N5        30.19S
SIOUX CITY     CLEAR     74  62  66 NE6       30.17R
SPENCER        CLEAR     66  57  72 N8        30.18S
STORM LAKE     CLEAR     70  61  73 N12       30.18S
$$

ABBREVIATIONS USED IN REMARKS
   TC - TEMPERATURE IN CELSIUS
  WCI - WIND CHILL INDEX
   HX - HEAT INDEX
  VSB - VISIBILITY



USA.gov is the U.S. government's official web portal to all federal, state and local government web resources and services.